Location: Enid
(36.3960°N, 97.8780°W)
Time: 14:03:41
(UTC-05:00)

HST - Visible Passes

Search period start: 17 April 2014 00:00
Search period end: 27 April 2014 00:00
Orbit: 549 x 553 km, 28.5° (Epoch: 16 April)

Date Brightness Start Highest point End Pass type
(mag) Time Alt. Az. Time Alt. Az. Time Alt. Az.
17 Apr 2.4 21:57:12 10° SW 21:59:36 23° SSW 21:59:36 23° SSW visible
18 Apr 2.1 21:50:38 10° WSW 21:53:41 26° SSW 21:53:41 26° SSW visible
19 Apr 2.0 21:44:07 10° WSW 21:47:41 27° S 21:47:42 27° S visible
20 Apr 2.0 21:37:37 10° WSW 21:41:09 26° S 21:41:39 26° S visible
21 Apr 2.1 21:31:10 10° WSW 21:34:36 25° S 21:35:34 23° SSE visible
22 Apr 2.4 21:24:46 10° WSW 21:28:03 22° S 21:29:28 19° SSE visible
23 Apr 2.6 21:18:25 10° WSW 21:21:28 20° SSW 21:23:20 15° SSE visible
24 Apr 2.8 21:12:10 10° WSW 21:14:53 17° SSW 21:17:13 11° SSE visible
25 Apr 3.1 21:06:05 10° SW 21:08:17 14° SSW 21:10:29 10° SSE visible
26 Apr 3.2 21:00:25 10° SW 21:01:39 11° SSW 21:02:54 10° S visible
